Regional Weather Roundup
Issued by NWS Green Bay, WI

Home | Current Version | Previous Version | Graphics & Text | Print | Product List | Glossary Off
Versions: 1 2 3 4 5 6 7 8 9 10 11 12 13 14 15 16 17 18 19 20 21 22 23 24 25 26 27 28 29 30 31 32 33 34 35 36 37 38 39 40 41 42 43 44 45 46 47 48 49 50

000
ASUS43 KGRB 261000
RWRGRB

NORTH-CENTRAL AND NORTHEAST WISCONSIN REGIONAL WEATHER ROUNDUP
NATIONAL WEATHER SERVICE GREEN BAY WI
500 AM CDT SUN MAR 26 2017

WIZ005-009-010>012-018-019-261100-
NORTH CENTRAL WISCONSIN

CITY           SKY/WX    TMP DP  RH WIND       PRES   REMARKS
IRONWOOD       MIX PCPN  32  31  96 CALM      30.01F
MANITOWISH WTR NOT AVBL
ARBOR VITAE    NOT AVBL
EAGLE RIVER    NOT AVBL
LAND O LAKES   NOT AVBL
RHINELANDER    CLOUDY    33  32  96 E12       29.98F
PHILLIPS       NOT AVBL
ANTIGO         NOT AVBL
TOMAHAWK       NOT AVBL
MERRILL        NOT AVBL
$$

WIZ013-073-261100-
NORTHEAST WISCONSIN

CITY           SKY/WX    TMP DP  RH WIND       PRES   REMARKS
IRON MOUNTAIN  CLOUDY    32  29  88 VRB5      30.01F
MARINETTE      CLOUDY    33  32  96 E12       30.03F FOG
$$

WIZ017-030-035>037-045-261100-
CENTRAL WISCONSIN

CITY           SKY/WX    TMP DP  RH WIND       PRES   REMARKS
MEDFORD        NOT AVBL
WAUSAU         MIX PCPN  32  32 100 E9        29.95F FOG
MOSINEE        NOT AVBL
MARSHFIELD     LGT RAIN  33  31  92 E10       29.93F FOG
WISC RAPIDS    CLOUDY    34  34 100 E8        29.95F
STEVENS POINT  NOT AVBL
WAUPACA        NOT AVBL
SHAWANO        NOT AVBL
CLINTONVILLE   NOT AVBL
WAUTOMA        CLOUDY    35  34  96 NE12      29.95F FOG
$$

WIZ038-039-048-051-261100-
FOX VALLEY

CITY           SKY/WX    TMP DP  RH WIND       PRES   REMARKS
NWS GREEN BAY  CLOUDY    35  35 100 NE10      29.99F FOG
APPLETON       NOT AVBL
OSHKOSH        LGT RAIN  36  35  96 NE10      29.95F VSB 1
FOND DU LAC    LGT RAIN  38  36  92 NE8       29.94F
$$

WIZ022-050-052-261100-
EAST CENTRAL WISCONSIN

CITY           SKY/WX    TMP DP  RH WIND       PRES   REMARKS
EPHRAIM        NOT AVBL
WASHINGTON ISL NOT AVBL
STURGEON BAY   CLOUDY    35  34  96 NE8       30.01  FOG
MANITOWOC      NOT AVBL
SHEBOYGAN      RAIN      37  36  96 NE12      29.96F FOG
$$

LMZ563-521-522-541>543-261100-
LAKESHORE

STATION/POSITION TIME  TEMP    WIND        PRES    VSBY  WAVE
                       AIR SEA DIR/SP/G                  HT/PER
                 (UTC) (F)     (DEG/KT/KT) (MB)    (MI)  (FT/S)
SHEBOYGAN LKSHOR 0900   36      30/ 12/ 13 1015.5F
KEWAUNEE LKSHORE 0930   36      50/  7/ 12 1015.5F
NORTHPORT PIER   0940   33      80/ 14/ 18 1017.3F
SISTER BAY LKSHO 0851   33     120/  8/ 13   N/A
CHAMBERS ISLAND  0940   33      40/  8/ 10 1016.6F
MENOMINEE LKSHOR 0930   32      20/ 12/ 14 1016.1F
$$




USA.gov is the U.S. government's official web portal to all federal, state and local government web resources and services.